Location: ????????
(56.1167°N, 38.6333°E)
Time: 09:47:00
(UTC+00:00)

Cosmos 1346 Rocket - Pass Details

Date: 15 February 2026
Orbit: 476 x 485 km, 81.2° (Epoch: 11 March)

Event Time Altitude Azimuth Distance (km) Brightness Sun altitude
Rises 18:11:22 0° 240° (WSW) 2,534 6.6 -30.9°
Reaches altitude 10° 18:14:08 10° 264° (W) 1,663 5.9 -31.3°
Maximum altitude 18:16:25 16° 303° (WNW) 1,348 5.5 -31.6°
Enters shadow 18:18:21 11° 337° (NNW) 1,583 5.7 -31.8°
